Find Starlink 34628

NORAD ID: 64864 Int'l Des: 2025-152 Owner: SPXS Country: US Constellation: starlink operational
LEOCIRCULARRETROGRADESSO

Live Position

Loading 3D Globe...

About Starlink 34628

Description loading...

Upcoming Passes

Passes for default location (London). Set your location on the main map for personalized predictions.

Altitude History

Loading altitude history...

Two-Line Element Set

1 64864U 25152Y 26107.13044745 .00003039 00000-0 21472-3 0 9991
2 64864 97.6035 323.4275 0002218 83.7826 276.3654 15.05652504 41206
Epoch: Apr 17, 2026 • Age: 12 hours

Current Status

Altitude 557.9 km
Velocity 7.59 km/s
Sub-Earth Point 56.85°N, 87.32°E
Launch Date Jul 19, 2025
Age 0.7 years
Type internet

Technical Details

Classification Payload
Mass 575.00 kg
Dry Mass 530.00 kg
Total Mass 575.00 kg
Length 0.30 m
Diameter 4.10 m
Span 29.00 m
Shape Box + pan
Manufacturer SPXS
Bus Type Starlink V2MO
Phase Status In Orbit
Owner/State SPXS/US

Most Searched